Regional Weather Roundup
Issued by NWS

Home | Current Version | Previous Version | Text Only | Print | Product List | Glossary On
Versions: 1 2 3 4 5 6 7 8 9 10 11 12 13 14 15 16 17 18 19 20 21 22 23 24 25 26 27 28 29 30 31 32 33 34 35 36 37 38 39 40 41 42 43 44 45 46 47 48 49 50
000
ASUS46 KPQR 250010
RWROR

OREGON REGIONAL WEATHER ROUNDUP
NATIONAL WEATHER SERVICE PORTLAND OR
400 PM PST FRI NOV 24 2017

NOTE: "FAIR" INDICATES FEW OR NO CLOUDS BELOW 12,000 FEET WITH
NO SIGNIFICANT WEATHER AND/OR OBSTRUCTIONS TO VISIBILITY.

ORZ001>013-250100-
NORTHWEST OREGON


CITY           SKY/WX    TMP DP  RH WIND       PRES   REMARKS
ASTORIA        PTCLDY    51  46  83 S12       30.07S
6HR MIN TEMP:  50; 6HR MAX TEMP:  55; 6HR PCP:  0.01;

NEWPORT        PTCLDY    52  46  82 S8        30.15R
PORTLAND       PTCLDY    54  42  64 S8        30.12S
6HR MIN TEMP:  49; 6HR MAX TEMP:  56;

VANCOUVER WA   PTCLDY    55  43  63 CALM      30.11S
6HR MIN TEMP:  50; 6HR MAX TEMP:  56;

SCAPPOOSE      MOCLDY    52  44  74 SE5       30.11R
6HR MIN TEMP:  47; 6HR MAX TEMP:  54;

HILLSBORO      CLEAR     52  45  77 S3        30.10S
6HR MIN TEMP:  46; 6HR MAX TEMP:  55;

AURORA         PTCLDY    54  43  66 SW3       30.13R
6HR MIN TEMP:  51; 6HR MAX TEMP:  56;

MCMINNVILLE    PTCLDY    52  45  77 SW5       30.12R
6HR MIN TEMP:  46; 6HR MAX TEMP:  56;

SALEM          CLEAR     54  40  59 S5        30.10R
6HR MIN TEMP:  50; 6HR MAX TEMP:  56;

CORVALLIS      CLEAR     53  45  74 S6        30.12R
EUGENE         PTCLDY    52  44  74 SW7       30.12R
6HR MIN TEMP:  45; 6HR MAX TEMP:  55;

$$

ORZ021-028-250100-
SOUTHWEST OREGON


CITY           SKY/WX    TMP DP  RH WIND       PRES   REMARKS
NORTH BEND     CLEAR     53  48  83 W9        30.14R
6HR MIN TEMP:  51; 6HR MAX TEMP:  56;

BROOKINGS      MOCLDY    52  47  83 W3        30.12R
ROSEBURG       PTCLDY    55  41  59 CALM      30.11R
6HR MIN TEMP:  48; 6HR MAX TEMP:  57;

SEXTON SUMMIT  MOCLDY    40  32  73 S5        30.08R
6HR MIN TEMP:  39; 6HR MAX TEMP:  44; 6HR PCP: TRACE;

GRANTS PASS    FAIR      50  45  81 CALM      30.15R
MEDFORD        MOCLDY    53  43  68 CALM      30.09S
6HR MIN TEMP:  47; 6HR MAX TEMP:  54;

$$

ORZ014>016-041-250100-
COLUMBIA GORGE


CITY           SKY/WX    TMP DP  RH WIND       PRES   REMARKS
TROUTDALE      CLEAR     55  42  61 SW6       30.12S
6HR MIN TEMP:  52; 6HR MAX TEMP:  57;

HOOD RIVER     PTCLDY    46  41  81 NW3       30.11S
THE DALLES     CLEAR     52  40  63 W8        30.10S
6HR MIN TEMP:  51; 6HR MAX TEMP:  57;

$$

ORZ029>031-041-044-049-050-061>064-502-503-505>511-250100-
EASTERN OREGON


CITY           SKY/WX    TMP DP  RH WIND       PRES   REMARKS
MADRAS         CLEAR     50  48  93 SW3       30.09R
REDMOND        CLEAR     49  28  44 NE3       30.05F
6HR MIN TEMP:  44; 6HR MAX TEMP:  50;

BEND           CLEAR     48  25  40 S9        30.06F
PRINEVILLE     CLEAR     46  27  46 CALM      30.07R
KLAMATH FALLS  MOCLDY    46  37  71 CALM      30.08S
6HR MIN TEMP:  42; 6HR MAX TEMP:  49;

LAKEVIEW       PTCLDY    44  38  79 SE8       30.10R
HERMISTON      CLEAR     52  38  58 W5        30.09S
6HR MIN TEMP:  52; 6HR MAX TEMP:  56;

PENDLETON      CLEAR     48  37  65 N5        30.08F
6HR MIN TEMP:  47; 6HR MAX TEMP:  53;

JOHN DAY       CLEAR     45  30  55 CALM      30.08S
MEACHAM        CLEAR     37  32  82 CALM      30.06S
6HR MIN TEMP:  37; 6HR MAX TEMP:  43;

LA GRANDE      CLEAR     42  32  67 CALM      30.09S
6HR MIN TEMP:  42; 6HR MAX TEMP:  48;

BAKER CITY     CLEAR     46  27  47 NE5       30.09S
6HR MIN TEMP:  45; 6HR MAX TEMP:  51;

BURNS          MOCLDY    40  30  67 E3        30.09F
6HR MIN TEMP:  40; 6HR MAX TEMP:  46;

ROME             N/A     50  36  58 NE6       30.08S
6HR MIN TEMP:  50; 6HR MAX TEMP:  53;

ONTARIO        CLEAR     50  31  48 CALM      30.12R
6HR MIN TEMP:  50; 6HR MAX TEMP:  56;

$$



USA.gov is the U.S. government's official web portal to all federal, state and local government web resources and services.